Regional Weather Roundup
Issued by NWS

Home | Current Version | Previous Version | Graphics & Text | Print | Product List | Glossary On
Versions: 1 2 3 4 5 6 7 8 9 10 11 12 13 14 15 16 17 18 19 20 21 22 23 24 25 26 27
000
ASUS45 KCYS 210910
RWRWY

WYOMING REGIONAL WEATHER ROUNDUP
NATIONAL WEATHER SERVICE CHEYENNE WY
300 AM MDT SAT APR 21 2018

NOTE:  "FAIR" INDICATES FEW OR NO CLOUDS BELOW 12,000 FEET
WITH NO SIGNIFICANT WEATHER AND/OR OBSTRUCTIONS TO VISIBILITY.

WYZ001-211000-
YELLOWSTONE NATIONAL PARK

CITY           SKY/WX    TMP DP  RH WIND       PRES   REMARKS
LK YELLOWSTONE   N/A     23  20  88 CALM      30.22S
W YELLOWSTONE  NOT AVBL

$$
WYZ002>013-054>058-071-098>099-211000-
NORTHERN WYOMING

CITY           SKY/WX    TMP DP  RH WIND       PRES   REMARKS
JACKSON        FAIR      33  24  69 CALM      30.16S
CODY           FAIR      43  31  62 SW6       30.12F
GREYBULL       FAIR      40  35  83 CALM      30.08S
WORLAND        FAIR      37  33  85 S7        30.08S WCI  32
SHERIDAN       FAIR      36  33  89 S3        30.10F
BUFFALO        FAIR      36  33  89 SE13      30.13F WCI  27
GILLETTE       CLOUDY    38  35  89 S18       30.15F WCI  28
HULETT         FAIR      37  32  81 S15G24    30.16F WCI  28
NEWCASTLE      DRIZZLE   36  36 100 SE9       30.21F WCI  29

$$
WYZ014>020-022>026-101>103-211000-
CENTRAL WYOMING

CITY           SKY/WX    TMP DP  RH WIND       PRES   REMARKS
BIG PINEY      FAIR      31  24  75 CALM      30.17S
PINEDALE       FAIR      28  23  80 CALM      30.18R
DUBOIS         FAIR      30  25  80 W9        30.17F WCI  22
LANDER         FAIR      34  29  82 SE5       30.12F WCI  30
RIVERTON       FAIR      34  30  85 CALM      30.14F
CASPER         CLOUDY    36  35  96 E3        30.15F
DOUGLAS        CLOUDY    35  35 100 SE13      30.17S WCI  26

$$
WYZ021-027>030-104>119-211000-
SOUTHERN WYOMING

CITY           SKY/WX    TMP DP  RH WIND       PRES   REMARKS
EVANSTON       FAIR      40  24  53 CALM      30.17S
KEMMERER       FAIR      32  28  86 N8        30.17S WCI  25
FORT BRIDGER   FAIR      33  33 100 S3        30.20R
ROCK SPRINGS   CLOUDY    37  31  78 CALM      30.17S
DIXON          CLOUDY    37  30  74 N13       30.12R WCI  29
RAWLINS          N/A    N/A N/A N/A MISG      30.13F
SARATOGA       CLOUDY    32  32 100 NW9       30.11S WCI  24
LARAMIE        FLURRIES  28  28 100 S3        30.10F
CHEYENNE       FLURRIES  31  31 100 E7        30.12F WCI  24
TORRINGTON     CLOUDY    34  34 100 E8        30.19F FOG     WCI  27
PINE BLUFFS    CLOUDY    32  32 100 MISG      30.15F

$$




USA.gov is the U.S. government's official web portal to all federal, state and local government web resources and services.